Weather History for PAAK - March, 2013

Change the Weather History Date:

Monday, March 4, 2013

  Actual Average (PADK) Record (PADK)
Temperature  
Mean Temperature 36 °F -  
Max Temperature 39 °F 38 °F 46 °F (1985)
Min Temperature 33 °F 28 °F 12 °F (2008)
Degree Days  
Heating Degree Days 29    
Moisture  
Dew Point 28 °F    
Average Humidity 74    
Maximum Humidity 100    
Minimum Humidity 56    
Precipitation  
Precipitation 0.00 in - - ()
Sea Level Pressure  
Sea Level Pressure 29.55 in    
Wind  
Wind Speed 11 mph (SW)    
Max Wind Speed 17 mph    
Max Gust Speed 22 mph    
Visibility 10 miles    
Events      
Averages and records for this station are not official NWS values.
T = Trace of Precipitation, MM = Missing Value Source: NWS Daily Summary

Daily Weather History Graph

Daily Weather History Graph

Search for Another Location

Airport or City:

Trip Planner

Search our weather history database for the weather conditions in past years. The results will help you decide how hot, cold, wet, or windy it might be!

Date:

Astronomy

Mar. 04, 2013 Rise Set
Actual Time 8:14 AM HST 7:22 PM HST
Civil Twilight 7:41 AM HST 7:56 PM HST
Nautical Twilight 7:01 AM HST 8:35 PM HST
Astronomical Twilight 6:22 AM HST 9:15 PM HST
Moon 3:12 AM HST (3/4) 11:43 AM HST (3/4)
Length of Visible Light 12h 15m
Length of Day
11h 07m
Waning Gibbous, 50% of the Moon is Illuminated
Mar 4
Waning Gibbous
Mar 11
New
Mar 19
First Quarter
Mar 27
Full
Apr 2
Last Quarter

Hourly Weather History & Observations

Time (HST) Temp. Windchill Dew Point Humidity Pressure Visibility Wind Dir Wind Speed Gust Speed Precip Events Conditions
12:16 AM 37.4 °F 27.8 °F 37.4 °F 100% 29.48 in 6.0 mi SW 17.3 mph - N/A   Partly Cloudy
12:36 AM 37.4 °F 29.3 °F 37.4 °F 100% 29.48 in 7.0 mi SW 12.7 mph - N/A   Clear
12:56 AM 37.4 °F 30.3 °F 37.4 °F 100% 29.48 in 10.0 mi SW 10.4 mph - N/A   Clear
1:16 AM 37.4 °F 29.8 °F 37.4 °F 100% 29.48 in 9.0 mi SW 11.5 mph - N/A   Clear
1:36 AM 37.4 °F 30.3 °F 35.6 °F 93% 29.48 in 9.0 mi West 10.4 mph - N/A   Clear
1:56 AM 35.6 °F 31.7 °F 33.8 °F 93% 29.48 in 10.0 mi SW 4.6 mph - N/A   Clear
2:16 AM 37.4 °F 32.1 °F 32.0 °F 81% 29.49 in 10.0 mi SW 6.9 mph - N/A   Clear
2:36 AM 35.6 °F 28.0 °F 30.2 °F 81% 29.49 in 10.0 mi SW 10.4 mph - N/A   Clear
2:56 AM 35.6 °F 28.6 °F 30.2 °F 81% 29.50 in 10.0 mi SW 9.2 mph - N/A   Clear
3:16 AM 35.6 °F 28.0 °F 30.2 °F 81% 29.50 in 10.0 mi SW 10.4 mph - N/A   Clear
3:36 AM 35.6 °F 28.0 °F 30.2 °F 81% 29.51 in 10.0 mi WSW 10.4 mph - N/A   Clear
3:56 AM 35.6 °F 28.0 °F 30.2 °F 81% 29.50 in 10.0 mi WSW 10.4 mph - N/A   Scattered Clouds
4:16 AM 35.6 °F 29.2 °F 28.4 °F 75% 29.50 in 10.0 mi West 8.1 mph - N/A   Scattered Clouds
4:36 AM 33.8 °F 25.8 °F 26.6 °F 75% 29.50 in 10.0 mi West 10.4 mph - N/A   Scattered Clouds
4:56 AM 33.8 °F 27.0 °F 26.6 °F 75% 29.50 in 10.0 mi West 8.1 mph - N/A   Scattered Clouds
5:16 AM 35.6 °F 30.7 °F 26.6 °F 70% 29.50 in 10.0 mi WSW 5.8 mph - N/A   Partly Cloudy
5:36 AM 35.6 °F 28.6 °F 26.6 °F 70% 29.50 in 10.0 mi WSW 9.2 mph - N/A   Clear
5:56 AM 35.6 °F 28.0 °F 28.4 °F 75% 29.50 in 10.0 mi SW 10.4 mph - N/A   Clear
6:16 AM 37.4 °F 29.3 °F 26.6 °F 65% 29.50 in 10.0 mi SW 12.7 mph - N/A   Partly Cloudy
6:36 AM 35.6 °F 27.5 °F 26.6 °F 70% 29.50 in 10.0 mi SW 11.5 mph - N/A   Clear
6:56 AM 35.6 °F 27.5 °F 26.6 °F 70% 29.51 in 10.0 mi West 11.5 mph - N/A   Clear
7:16 AM 35.6 °F 29.2 °F 26.6 °F 70% 29.51 in 10.0 mi West 8.1 mph - N/A   Clear
7:36 AM 33.8 °F 25.8 °F 24.8 °F 70% 29.52 in 10.0 mi West 10.4 mph - N/A   Clear
7:56 AM 33.8 °F 27.0 °F 24.8 °F 70% 29.52 in 10.0 mi West 8.1 mph - N/A   Partly Cloudy
8:16 AM 33.8 °F 25.8 °F 26.6 °F 75% 29.53 in 10.0 mi SW 10.4 mph - N/A   Scattered Clouds
8:56 AM 35.6 °F 27.5 °F 26.6 °F 70% 29.54 in 10.0 mi SW 11.5 mph - N/A   Mostly Cloudy
9:16 AM 35.6 °F 28.0 °F 28.4 °F 75% 29.54 in 10.0 mi SW 10.4 mph - N/A   Mostly Cloudy
9:36 AM 37.4 °F 29.3 °F 26.6 °F 65% 29.54 in 10.0 mi SW 12.7 mph - N/A   Mostly Cloudy
9:56 AM 35.6 °F 27.1 °F 28.4 °F 75% 29.54 in 10.0 mi SSW 12.7 mph - N/A   Mostly Cloudy
10:16 AM 37.4 °F 29.3 °F 28.4 °F 70% 29.55 in 10.0 mi SSW 12.7 mph 16.1 mph N/A   Scattered Clouds
10:36 AM 37.4 °F 29.8 °F 28.4 °F 70% 29.56 in 10.0 mi SSW 11.5 mph 18.4 mph N/A   Partly Cloudy
10:56 AM 37.4 °F 29.8 °F 28.4 °F 70% 29.56 in 10.0 mi SW 11.5 mph - N/A   Clear
11:16 AM 37.4 °F 32.1 °F 28.4 °F 70% 29.56 in 10.0 mi SW 6.9 mph - N/A   Partly Cloudy
11:36 AM 37.4 °F 32.1 °F 26.6 °F 65% 29.57 in 10.0 mi SW 6.9 mph - N/A   Partly Cloudy
11:56 AM 37.4 °F 29.8 °F 30.2 °F 75% 29.56 in 10.0 mi SSW 11.5 mph - N/A   Mostly Cloudy
12:16 PM 37.4 °F 29.3 °F 28.4 °F 70% 29.57 in 10.0 mi SSW 12.7 mph 19.6 mph N/A   Mostly Cloudy
12:36 PM 39.2 °F 30.5 °F 26.6 °F 61% 29.57 in 10.0 mi SW 16.1 mph 20.7 mph N/A   Scattered Clouds
12:56 PM 39.2 °F 31.2 °F 24.8 °F 56% 29.58 in 10.0 mi SW 13.8 mph - N/A   Clear
1:16 PM 37.4 °F 29.3 °F 26.6 °F 65% 29.58 in 10.0 mi SSW 12.7 mph - N/A   Scattered Clouds
1:36 PM 35.6 °F 27.1 °F 30.2 °F 81% 29.58 in 10.0 mi SW 12.7 mph 20.7 mph N/A   Mostly Cloudy
1:56 PM 37.4 °F 30.8 °F 28.4 °F 70% 29.58 in 10.0 mi SW 9.2 mph - N/A   Mostly Cloudy
2:16 PM 39.2 °F 32.0 °F 24.8 °F 56% 29.58 in 10.0 mi SW 11.5 mph 19.6 mph N/A   Partly Cloudy
2:36 PM 37.4 °F 29.8 °F 24.8 °F 60% 29.58 in 10.0 mi SW 11.5 mph - N/A   Clear
2:56 PM 37.4 °F 28.9 °F 26.6 °F 65% 29.58 in 10.0 mi SSW 13.8 mph - N/A   Mostly Cloudy
3:16 PM 37.4 °F 28.9 °F 26.6 °F 65% 29.58 in 10.0 mi SSW 13.8 mph 17.3 mph N/A   Mostly Cloudy
3:36 PM 37.4 °F 28.5 °F 26.6 °F 65% 29.58 in 10.0 mi SSW 15.0 mph 21.9 mph N/A   Partly Cloudy
3:56 PM 37.4 °F 30.3 °F 26.6 °F 65% 29.59 in 10.0 mi SW 10.4 mph - N/A   Mostly Cloudy
4:16 PM 37.4 °F 31.4 °F 24.8 °F 60% 29.59 in 10.0 mi SSW 8.1 mph - N/A   Overcast
4:36 PM 37.4 °F 28.2 °F 26.6 °F 65% 29.59 in 10.0 mi SSW 16.1 mph 20.7 mph N/A   Mostly Cloudy
4:56 PM 37.4 °F 28.9 °F 26.6 °F 65% 29.59 in 10.0 mi SSW 13.8 mph - N/A   Partly Cloudy
5:16 PM 37.4 °F 31.4 °F 26.6 °F 65% 29.59 in 10.0 mi SW 8.1 mph - N/A   Clear
5:36 PM 37.4 °F 31.4 °F 26.6 °F 65% 29.59 in 10.0 mi SW 8.1 mph - N/A   Clear
5:56 PM 35.6 °F 28.0 °F 26.6 °F 70% 29.59 in 10.0 mi SW 10.4 mph - N/A   Partly Cloudy
6:16 PM 35.6 °F 26.6 °F 26.6 °F 70% 29.60 in 10.0 mi SW 13.8 mph 18.4 mph N/A   Mostly Cloudy
6:36 PM 35.6 °F 28.0 °F 26.6 °F 70% 29.60 in 10.0 mi SW 10.4 mph - N/A   Mostly Cloudy
6:56 PM 35.6 °F 30.7 °F 26.6 °F 70% 29.60 in 10.0 mi SW 5.8 mph - N/A   Mostly Cloudy
7:16 PM 35.6 °F 28.0 °F 26.6 °F 70% 29.60 in 7.0 mi SW 10.4 mph - N/A   Mostly Cloudy
7:36 PM 35.6 °F 28.6 °F 26.6 °F 70% 29.60 in 10.0 mi SW 9.2 mph - N/A   Partly Cloudy
7:56 PM 33.8 °F 25.3 °F 28.4 °F 81% 29.61 in 10.0 mi SW 11.5 mph - N/A   Partly Cloudy
8:16 PM 35.6 °F 27.1 °F 28.4 °F 75% 29.61 in 10.0 mi SW 12.7 mph - N/A   Mostly Cloudy
9:36 PM 33.8 °F 25.8 °F 28.4 °F 81% 29.61 in 10.0 mi SSW 10.4 mph - N/A   Scattered Clouds
9:56 PM 35.6 °F 28.0 °F 28.4 °F 75% 29.61 in 10.0 mi SSW 10.4 mph - N/A   Mostly Cloudy
10:16 PM 33.8 °F 27.7 °F 26.6 °F 75% 29.61 in 10.0 mi WSW 6.9 mph - N/A   Partly Cloudy
10:36 PM 33.8 °F 27.7 °F 26.6 °F 75% 29.61 in 10.0 mi SW 6.9 mph - N/A   Mostly Cloudy
10:56 PM 33.8 °F 26.4 °F 26.6 °F 75% 29.61 in 10.0 mi SW 9.2 mph - N/A   Mostly Cloudy
11:16 PM 33.8 °F 24.8 °F 28.4 °F 81% 29.62 in 3.0 mi SSW 12.7 mph - N/A   Mostly Cloudy
11:36 PM 33.8 °F 26.4 °F 28.4 °F 81% 29.61 in 10.0 mi SW 9.2 mph - N/A   Mostly Cloudy
11:56 PM 33.8 °F 26.4 °F 26.6 °F 75% 29.62 in 10.0 mi SW 9.2 mph - N/A   Scattered Clouds